Date String (YYYY-MM-DD hh:mm:ss) UTC,Instrument flags,Ambient pressure (hPa),Sample flow (lpm),Bypass flow (lpm),Sample temperature (°C),Ambient temperature (°C),ASC tube jacket temperature (°C),LED temperature (°C),Box temperature (°C),Sample RH (%),Span deviation,Mass concentration (μg/m³),Mass concentration (μg/m³),Mass concentration (μg/m³)
DateTimeUTC,F1_M11,P_M11,Q1_M11,Q2_M11,T1_M11,T2_M11,T3_M11,T4_M11,T5_M11,U1_M11,ZSPAN_M11,X0_M11,X2_M11,X1_M11
2022-09-28 12:00:00,,0833.5,5.00,0.00,29.9,27.9,00.0,38.7,31.7,19.8,0000.0,0008.67,0003.85,0003.35
2022-09-28 12:01:00,,0833.5,4.99,0.00,29.9,27.9,00.0,38.7,31.6,19.9,0000.0,0008.16,0003.88,0003.37
2022-09-28 12:02:00,,0833.6,4.99,0.00,29.8,27.8,00.0,38.7,31.6,20.1,0000.0,0007.98,0003.91,0003.38
2022-09-28 12:03:00,,0833.6,5.01,0.00,29.8,27.8,00.0,38.7,31.6,20.0,0000.0,0007.90,0003.94,0003.40
2022-09-28 12:04:00,,0833.5,5.01,0.00,29.8,27.6,00.0,38.7,31.5,20.1,0000.0,0008.10,0003.96,0003.40
2022-09-28 12:05:00,,0833.5,4.99,0.00,29.7,27.5,00.0,38.7,31.4,20.1,0000.0,0008.14,0003.97,0003.41
2022-09-28 12:06:00,,0833.5,5.01,0.00,29.7,27.5,00.0,38.6,31.4,20.3,0000.0,0008.33,0004.05,0003.42
2022-09-28 12:07:00,,0833.4,5.00,0.00,29.7,27.6,00.0,38.6,31.3,20.3,0000.0,0008.20,0004.05,0003.43
2022-09-28 12:08:00,,0833.4,4.99,0.00,29.6,27.5,00.0,38.6,31.3,20.3,0000.0,0008.13,0004.06,0003.44
2022-09-28 12:09:00,,0833.5,5.01,0.00,29.6,27.6,00.0,38.6,31.3,20.2,0000.0,0008.27,0004.11,0003.44
2022-09-28 12:10:00,,0833.4,5.00,0.00,29.6,27.6,00.0,38.6,31.3,20.1,0000.0,0008.39,0004.14,0003.44
2022-09-28 12:11:00,,0833.4,4.99,0.00,29.6,27.6,00.0,38.5,31.3,20.2,0000.0,0008.43,0004.17,0003.45
2022-09-28 12:12:00,,0833.4,5.00,0.00,29.5,27.6,00.0,38.5,31.3,20.1,0000.0,0008.45,0004.17,0003.46
2022-09-28 12:13:00,,0833.4,5.01,0.00,29.5,27.5,00.0,38.5,31.2,20.1,0000.0,0008.47,0004.17,0003.46
2022-09-28 12:14:00,,0833.4,5.01,0.00,29.5,27.5,00.0,38.5,31.2,20.1,0000.0,0008.24,0004.16,0003.47
2022-09-28 12:15:00,,0833.4,5.00,0.00,29.5,27.4,00.0,38.4,31.2,20.1,0000.0,0008.36,0004.19,0003.48
2022-09-28 12:16:00,,0833.4,5.00,0.00,29.4,27.3,00.0,38.4,31.1,20.1,0000.0,0008.41,0004.22,0003.49
2022-09-28 12:17:00,,0833.4,5.00,0.00,29.4,27.2,00.0,38.4,31.1,20.1,0000.0,0008.24,0004.18,0003.49
2022-09-28 12:18:00,,0833.5,5.00,0.00,29.4,27.2,00.0,38.4,31.1,20.1,0000.0,0008.34,0004.17,0003.49
2022-09-28 12:19:00,,0833.5,5.01,0.00,29.4,27.3,00.0,38.3,31.1,20.2,0000.0,0009.51,0004.18,0003.51
2022-09-28 12:20:00,,0833.4,4.99,0.00,29.4,27.4,00.0,38.3,31.1,20.1,0000.0,0009.90,0004.16,0003.51
2022-09-28 12:21:00,,0833.4,5.01,0.00,29.4,27.6,00.0,38.3,31.2,20.1,0000.0,0009.90,0004.13,0003.52
2022-09-28 12:22:00,,0833.4,4.99,0.00,29.4,27.6,00.0,38.3,31.1,20.0,0000.0,0009.95,0004.17,0003.52
2022-09-28 12:23:00,,0833.4,5.01,0.00,29.4,27.5,00.0,38.3,31.1,19.9,0000.0,0010.04,0004.19,0003.52
2022-09-28 12:24:00,,0833.4,4.99,0.00,29.3,27.3,00.0,38.3,31.1,19.9,0000.0,0010.35,0004.25,0003.53
2022-09-28 12:25:00,,0833.5,5.01,0.00,29.3,27.2,00.0,38.2,31.0,19.9,0000.0,0010.27,0004.26,0003.52
2022-09-28 12:26:00,,0833.4,5.01,0.00,29.3,27.3,00.0,38.2,31.0,19.9,0000.0,0009.92,0004.23,0003.51
2022-09-28 12:27:00,,0833.5,5.00,0.00,29.3,27.2,00.0,38.2,31.0,19.9,0000.0,0009.82,0004.21,0003.50
2022-09-28 12:28:00,,0833.4,5.00,0.00,29.2,27.2,00.0,38.2,31.0,19.9,0000.0,0009.81,0004.18,0003.50
2022-09-28 12:29:00,,0833.4,5.01,0.00,29.2,27.2,00.0,38.2,31.0,19.9,0000.0,0009.81,0004.20,0003.50
2022-09-28 12:30:00,,0833.4,4.99,0.00,29.2,27.2,00.0,38.1,31.0,20.2,0000.0,0009.04,0004.19,0003.50
2022-09-28 12:31:00,,0833.4,5.01,0.00,29.2,27.3,00.0,38.1,31.0,20.3,0000.0,0008.30,0004.20,0003.51
2022-09-28 12:32:00,,0833.4,5.00,0.00,29.2,27.3,00.0,38.1,31.0,20.3,0000.0,0008.85,0004.22,0003.52
2022-09-28 12:33:00,,0833.4,5.00,0.00,29.2,27.2,00.0,38.1,31.0,20.3,0000.0,0009.72,0004.23,0003.54
2022-09-28 12:34:00,,0833.4,5.00,0.00,29.2,27.2,00.0,38.1,30.9,20.4,0000.0,0009.95,0004.26,0003.58
2022-09-28 12:35:00,,0833.4,4.99,0.00,29.2,27.1,00.0,38.1,30.9,20.4,0000.0,0010.54,0004.33,0003.62
2022-09-28 12:36:00,,0833.4,5.01,0.00,29.2,27.1,00.0,38.1,30.9,20.4,0000.0,0011.01,0004.39,0003.65
2022-09-28 12:37:00,,0833.5,5.00,0.00,29.1,27.1,00.0,38.1,30.9,20.4,0000.0,0011.41,0004.45,0003.68
2022-09-28 12:38:00,,0833.4,5.00,0.00,29.1,27.2,00.0,38.0,30.9,20.4,0000.0,0011.88,0004.51,0003.72
2022-09-28 12:39:00,,0833.4,5.01,0.00,29.1,27.2,00.0,38.0,30.9,20.4,0000.0,0012.19,0004.61,0003.75
2022-09-28 12:40:00,,0833.4,4.99,0.00,29.1,27.2,00.0,38.0,30.9,20.4,0000.0,0012.37,0004.67,0003.79
2022-09-28 12:41:00,,0833.4,5.01,0.00,29.1,27.3,00.0,38.0,30.9,20.4,0000.0,0012.54,0004.70,0003.82
2022-09-28 12:42:00,,0833.4,5.00,0.00,29.1,27.3,00.0,38.0,30.9,20.4,0000.0,0012.62,0004.72,0003.82
2022-09-28 12:43:00,,0833.4,5.00,0.00,29.1,27.4,00.0,38.0,30.9,20.4,0000.0,0012.64,0004.75,0003.83
2022-09-28 12:44:00,,0833.5,4.99,0.00,29.1,27.4,00.0,38.0,30.9,20.4,0000.0,0012.17,0004.75,0003.82
2022-09-28 12:45:00,,0833.5,5.00,0.00,29.1,27.3,00.0,37.9,30.9,20.4,0000.0,0012.26,0004.79,0003.80
2022-09-28 12:46:00,,0833.4,5.00,0.00,29.1,27.4,00.0,37.9,30.9,20.4,0000.0,0013.71,0004.73,0003.78
2022-09-28 12:47:00,,0833.4,5.00,0.00,29.1,27.4,00.0,37.9,30.9,20.4,0000.0,0013.73,0004.71,0003.77
2022-09-28 12:48:00,,0833.4,4.99,0.00,29.1,27.3,00.0,37.9,30.9,20.5,0000.0,0013.59,0004.76,0003.77
2022-09-28 12:49:00,,0833.4,5.00,0.00,29.1,27.2,00.0,37.9,30.8,20.5,0000.0,0013.24,0004.73,0003.76
2022-09-28 12:50:00,,0833.4,5.00,0.00,29.1,27.2,00.0,37.9,30.8,20.5,0000.0,0013.18,0004.70,0003.76
2022-09-28 12:51:00,,0833.5,5.01,0.00,29.0,27.1,00.0,37.9,30.8,20.5,0000.0,0013.39,0004.69,0003.74
2022-09-28 12:52:00,,0833.5,4.99,0.00,29.0,27.1,00.0,37.9,30.8,20.5,0000.0,0013.28,0004.69,0003.72
2022-09-28 12:53:00,,0833.5,5.01,0.00,29.0,27.1,00.0,37.9,30.8,20.6,0000.0,0013.21,0004.68,0003.72
2022-09-28 12:54:00,,0833.5,5.00,0.00,29.0,27.1,00.0,37.9,30.8,20.6,0000.0,0012.92,0004.66,0003.73
2022-09-28 12:55:00,,0833.5,4.99,0.00,29.0,27.1,00.0,37.9,30.8,20.6,0000.0,0012.08,0004.64,0003.73
2022-09-28 12:56:00,,0833.6,5.01,0.00,29.0,27.1,00.0,37.9,30.7,20.6,0000.0,0011.86,0004.60,0003.73
2022-09-28 12:57:00,,0833.6,4.98,0.00,29.0,27.0,00.0,37.8,30.7,20.7,0000.0,0010.12,0004.60,0003.73
2022-09-28 12:58:00,,0833.6,5.01,0.00,28.9,27.1,00.0,37.8,30.7,20.7,0000.0,0009.94,0004.60,0003.74
2022-09-28 12:59:00,,0833.6,4.99,0.00,28.9,27.1,00.0,37.8,30.7,20.6,0000.0,0009.95,0004.56,0003.74
